This is the latest recevied weather packets stored in our database for station/object DG7FDL-7. If no packets are shown the sender has not sent any weather packets the latest 10 day(s).
| Time | Temp. | Humidity | Pressure | Rain* | Wind** | Luminosity | Snow |
|---|---|---|---|---|---|---|---|
| 1777720884 | 23.33° C | 32% | 1021.2 hPa | - | - | - | - |
| 1777719951 | 23.33° C | 33% | 1021.3 hPa | - | - | - | - |
| 1777719074 | 22.78° C | 34% | 1021.5 hPa | - | - | - | - |
| 1777718144 | 22.78° C | 34% | 1021.6 hPa | - | - | - | - |
| 1777717282 | 22.78° C | 34% | 1021.9 hPa | - | - | - | - |
| 1777716345 | 23.89° C | 34% | 1022 hPa | - | - | - | - |
| 1777714547 | 22.22° C | 35% | 1022.4 hPa | - | - | - | - |
| 1777713667 | 22.22° C | 35% | 1022.6 hPa | - | - | - | - |
| 1777712744 | 22.22° C | 35% | 1022.7 hPa | - | - | - | - |
| 1777711875 | 22.22° C | 35% | 1022.9 hPa | - | - | - | - |
| 1777710944 | 22.22° C | 35% | 1022.8 hPa | - | - | - | - |
| 1777710072 | 21.67° C | 35% | 1023 hPa | - | - | - | - |
| 1777709144 | 22.22° C | 34% | 1023.2 hPa | - | - | - | - |
| 1777708268 | 21.67° C | 35% | 1023.2 hPa | - | - | - | - |
| 1777707347 | 22.78° C | 34% | 1023.4 hPa | - | - | - | - |
| 1777706457 | 21.67° C | 35% | 1023.5 hPa | - | - | - | - |
| 1777705542 | 22.22° C | 34% | 1023.7 hPa | - | - | - | - |
| 1777704644 | 21.67° C | 34% | 1023.8 hPa | - | - | - | - |
| 1777703737 | 22.22° C | 34% | 1023.9 hPa | - | - | - | - |
| 1777702844 | 22.22° C | 33% | 1023.9 hPa | - | - | - | - |
| 1777701935 | 22.78° C | 33% | 1023.9 hPa | - | - | - | - |
| 1777701057 | 22.78° C | 33% | 1024 hPa | - | - | - | - |
| 1777700135 | 22.78° C | 33% | 1024.1 hPa | - | - | - | - |
| 1777699244 | 22.78° C | 33% | 1024.1 hPa | - | - | - | - |
| 1777698334 | 22.78° C | 32% | 1024.1 hPa | - | - | - | - |
* Rain since midnight (hover to see other rain measurements)
** Current wind speed in m/s (hover to see current wind gust speed)